• en Suisse
  • Liste des pays
  • À 7 jours
  • Température de l'eau
  • Carte satellitaire
  • Carte météo
  • Widgets météo
  • user-avatar
    Se connecter

    Météo par heure à Ipswich

    Ce jour, 18 Octobre, Jeudi

    Heure Température Précipitation Vent Pression Humidité
    00:00 +11°C° 0 mm 4 m/s 767 mmHg 90%
    01:00 +10°C° 0 mm 4 m/s 767 mmHg 90%
    02:00 +10°C° 0 mm 4 m/s 767 mmHg 90%
    03:00 +10°C° 0 mm 4 m/s 767 mmHg 90%
    04:00 +10°C° 0 mm 4 m/s 767 mmHg 90%
    05:00 +10°C° 0 mm 4 m/s 767 mmHg 90%
    06:00 +8°C° 0 mm 4 m/s 768 mmHg 90%
    07:00 +10°C° 0 mm 5 m/s 768 mmHg 85%
    08:00 +12°C° 0 mm 5 m/s 768 mmHg 80%
    09:00 +13°C° 0 mm 6 m/s 768 mmHg 75%
    10:00 +14°C° 0 mm 5 m/s 769 mmHg 71%
    11:00 +14°C° 0 mm 5 m/s 769 mmHg 66%
    12:00 +15°C° 0 mm 5 m/s 769 mmHg 61%
    13:00 +15°C° 0 mm 5 m/s 769 mmHg 61%
    14:00 +15°C° 0 mm 5 m/s 768 mmHg 61%
    15:00 +15°C° 0 mm 5 m/s 768 mmHg 61%
    16:00 +14°C° 0 mm 5 m/s 768 mmHg 66%
    17:00 +12°C° 0 mm 4 m/s 768 mmHg 71%
    18:00 +11°C° 0 mm 4 m/s 768 mmHg 76%
    19:00 +11°C° 0 mm 4 m/s 768 mmHg 78%
    20:00 +10°C° 0 mm 4 m/s 768 mmHg 81%
    21:00 +10°C° 0 mm 4 m/s 768 mmHg 83%
    22:00 +10°C° 0 mm 3 m/s 768 mmHg 84%
    23:00 +10°C° 0 mm 3 m/s 768 mmHg 86%

    Demain, 19 Octobre, Vendredi

    Heure Température Précipitation Vent Pression Humidité
    00:00 +10°C° 0 mm 3 m/s 769 mmHg 87%
    01:00 +10°C° 0 mm 3 m/s 768 mmHg 88%
    02:00 +10°C° 0 mm 2 m/s 768 mmHg 88%
    03:00 +9°C° 0 mm 2 m/s 768 mmHg 89%
    04:00 +9°C° 0 mm 2 m/s 768 mmHg 89%
    05:00 +9°C° 0 mm 2 m/s 768 mmHg 89%
    06:00 +9°C° 0 mm 2 m/s 768 mmHg 89%
    07:00 +10°C° 0 mm 2 m/s 768 mmHg 84%
    08:00 +13°C° 0 mm 2 m/s 769 mmHg 79%
    09:00 +14°C° 0 mm 2 m/s 769 mmHg 74%
    10:00 +15°C° 0 mm 2 m/s 769 mmHg 69%
    11:00 +16°C° 0 mm 2 m/s 769 mmHg 64%
    12:00 +17°C° 0 mm 2 m/s 769 mmHg 59%
    13:00 +17°C° 0 mm 2 m/s 769 mmHg 58%
    14:00 +18°C° 0 mm 1 m/s 769 mmHg 56%
    15:00 +18°C° 0 mm 1 m/s 769 mmHg 55%
    16:00 +16°C° 0 mm 2 m/s 769 mmHg 60%
    17:00 +14°C° 0 mm 2 m/s 769 mmHg 66%
    18:00 +13°C° 0 mm 2 m/s 769 mmHg 71%
    19:00 +13°C° 0 mm 2 m/s 770 mmHg 74%
    20:00 +12°C° 0 mm 1 m/s 770 mmHg 76%
    21:00 +12°C° 0 mm 1 m/s 770 mmHg 79%
    22:00 +11°C° 0 mm 1 m/s 771 mmHg 80%
    23:00 +11°C° 0 mm 1 m/s 771 mmHg 82%

    Après-demain, 20 Octobre, Samedi

    Heure Température Précipitation Vent Pression Humidité
    00:00 +11°C° 0 mm 1 m/s 771 mmHg 83%
    01:00 +11°C° 0 mm 1 m/s 771 mmHg 83%
    02:00 +11°C° 0 mm 1 m/s 771 mmHg 84%
    03:00 +10°C° 0 mm 1 m/s 771 mmHg 85%
    04:00 +10°C° 0 mm 1 m/s 771 mmHg 85%
    05:00 +10°C° 0 mm 1 m/s 771 mmHg 85%
    06:00 +10°C° 0 mm 1 m/s 772 mmHg 86%
    07:00 +11°C° 0 mm 1 m/s 772 mmHg 81%
    08:00 +12°C° 0 mm 1 m/s 772 mmHg 75%
    09:00 +13°C° 0 mm 1 m/s 773 mmHg 70%
    10:00 +15°C° 0 mm 1 m/s 773 mmHg 64%
    11:00 +16°C° 0 mm 1 m/s 773 mmHg 59%
    12:00 +18°C° 0 mm 1 m/s 773 mmHg 54%
    13:00 +18°C° 0 mm 2 m/s 773 mmHg 53%
    14:00 +18°C° 0 mm 2 m/s 772 mmHg 53%
    15:00 +18°C° 0 mm 2 m/s 772 mmHg 52%
    16:00 +17°C° 0 mm 2 m/s 772 mmHg 57%
    17:00 +16°C° 0 mm 2 m/s 772 mmHg 63%
    18:00 +14°C° 0 mm 2 m/s 772 mmHg 68%
    19:00 +14°C° 0 mm 2 m/s 772 mmHg 70%
    20:00 +13°C° 0 mm 2 m/s 772 mmHg 72%
    21:00 +13°C° 0 mm 2 m/s 772 mmHg 74%
    22:00 +13°C° 0 mm 2 m/s 772 mmHg 75%
    23:00 +13°C° 0 mm 2 m/s 772 mmHg 76%

    21 Octobre, Dimanche

    Heure Température Précipitation Vent Pression Humidité
    00:00 +12°C° 0 mm 2 m/s 772 mmHg 77%
    01:00 +12°C° 0 mm 2 m/s 772 mmHg 78%
    02:00 +12°C° 0 mm 2 m/s 771 mmHg 78%
    03:00 +12°C° 0 mm 2 m/s 771 mmHg 79%
    04:00 +12°C° 0 mm 2 m/s 771 mmHg 79%
    05:00 +12°C° 0 mm 2 m/s 771 mmHg 79%
    06:00 +12°C° 0 mm 2 m/s 771 mmHg 79%
    07:00 +13°C° 0 mm 2 m/s 770 mmHg 75%
    08:00 +13°C° 0 mm 3 m/s 770 mmHg 71%
    09:00 +14°C° 0 mm 3 m/s 770 mmHg 66%
    10:00 +16°C° 0 mm 3 m/s 770 mmHg 62%
    11:00 +17°C° 0 mm 3 m/s 770 mmHg 57%
    12:00 +19°C° 0 mm 3 m/s 770 mmHg 52%
    13:00 +19°C° 0 mm 3 m/s 770 mmHg 52%
    14:00 +19°C° 0 mm 3 m/s 769 mmHg 52%
    15:00 +20°C° 0 mm 3 m/s 769 mmHg 52%
    16:00 +18°C° 0 mm 3 m/s 769 mmHg 59%
    17:00 +17°C° 0 mm 3 m/s 769 mmHg 66%
    18:00 +16°C° 0 mm 3 m/s 769 mmHg 72%
    19:00 +14°C° 0 mm 3 m/s 769 mmHg 76%
    20:00 +14°C° 0 mm 4 m/s 770 mmHg 81%
    21:00 +14°C° 0 mm 4 m/s 770 mmHg 85%
    22:00 +14°C° 0 mm 5 m/s 770 mmHg 83%
    23:00 +14°C° 0 mm 6 m/s 771 mmHg 82%

    22 Octobre, Lundi

    Heure Température Précipitation Vent Pression Humidité
    00:00 +14°C° 0 mm 7 m/s 771 mmHg 81%
    01:00 +12°C° 0 mm 7 m/s 772 mmHg 81%
    02:00 +11°C° 0 mm 7 m/s 772 mmHg 80%
    03:00 +10°C° 0 mm 6 m/s 772 mmHg 80%
    04:00 +10°C° 0 mm 6 m/s 773 mmHg 80%
    05:00 +9°C° 0 mm 6 m/s 773 mmHg 80%
    06:00 +9°C° 0 mm 6 m/s 774 mmHg 81%
    07:00 +9°C° 0 mm 6 m/s 774 mmHg 76%
    08:00 +10°C° 0 mm 6 m/s 775 mmHg 72%
    09:00 +10°C° 0 mm 7 m/s 775 mmHg 67%
    10:00 +11°C° 0 mm 6 m/s 775 mmHg 62%
    11:00 +13°C° 0 mm 6 m/s 776 mmHg 57%
    12:00 +13°C° 0 mm 6 m/s 776 mmHg 52%
    13:00 +13°C° 0 mm 6 m/s 776 mmHg 52%
    14:00 +13°C° 0 mm 6 m/s 775 mmHg 52%
    15:00 +13°C° 0 mm 5 m/s 775 mmHg 52%
    16:00 +12°C° 0 mm 5 m/s 776 mmHg 57%
    17:00 +9°C° 0 mm 5 m/s 776 mmHg 61%
    18:00 +8°C° 0 mm 4 m/s 776 mmHg 65%
    19:00 +8°C° 0 mm 4 m/s 776 mmHg 67%
    20:00 +8°C° 0 mm 4 m/s 776 mmHg 70%
    21:00 +7°C° 0 mm 4 m/s 776 mmHg 72%
    22:00 +7°C° 0 mm 5 m/s 775 mmHg 74%
    23:00 +7°C° 0 mm 5 m/s 775 mmHg 76%

    23 Octobre, Mardi

    Heure Température Précipitation Vent Pression Humidité
    00:00 +7°C° 0 mm 5 m/s 774 mmHg 78%
    01:00 +7°C° 0 mm 6 m/s 774 mmHg 79%
    02:00 +7°C° 0 mm 6 m/s 773 mmHg 81%
    03:00 +6°C° 0 mm 7 m/s 773 mmHg 82%
    04:00 +6°C° 0 mm 7 m/s 772 mmHg 82%
    05:00 +8°C° 0 mm 7 m/s 772 mmHg 82%
    06:00 +8°C° 0 mm 7 m/s 771 mmHg 83%
    07:00 +9°C° 0 mm 8 m/s 771 mmHg 79%
    08:00 +9°C° 0 mm 8 m/s 771 mmHg 75%
    09:00 +10°C° 0 mm 8 m/s 771 mmHg 71%
    10:00 +11°C° 0 mm 8 m/s 771 mmHg 69%
    11:00 +12°C° 0 mm 8 m/s 771 mmHg 67%
    12:00 +12°C° 0 mm 8 m/s 770 mmHg 64%
    13:00 +12°C° 0 mm 8 m/s 770 mmHg 65%
    14:00 +12°C° 0 mm 8 m/s 770 mmHg 66%
    15:00 +12°C° 0 mm 8 m/s 770 mmHg 67%
    16:00 +12°C° 0.1 mm 8 m/s 770 mmHg 69%
    17:00 +12°C° 0.1 mm 8 m/s 770 mmHg 71%
    18:00 +11°C° 0.1 mm 8 m/s 770 mmHg 72%
    19:00 +11°C° 0.1 mm 8 m/s 770 mmHg 74%
    20:00 +11°C° 0.1 mm 8 m/s 770 mmHg 75%
    21:00 +11°C° 0.1 mm 8 m/s 771 mmHg 76%
    22:00 +11°C° 0.1 mm 7 m/s 771 mmHg 78%
    23:00 +10°C° 0.1 mm 7 m/s 771 mmHg 79%
    Voir plus